Time,TemperatureF,DewpointF,PressureIn,WindDirection,WindDirectionDegrees,WindSpeedMPH,WindSpeedGustMPH,Humidity,HourlyPrecipIn,Conditions,Clouds,dailyrainin,SoftwareType,DateUTC
2013-01-13 00:03:00,43.5,42.5,30.19,SE,135,0.0,1.6,95,0.00,,,0.01,fowsr,2013-01-13 05:03:00,
2013-01-13 00:05:00,43.5,42.5,30.19,East,90,0.0,0.7,95,0.00,,,0.01,fowsr,2013-01-13 05:05:00,
2013-01-13 00:10:00,43.5,42.5,30.19,East,90,0.0,1.6,95,0.00,,,0.01,fowsr,2013-01-13 05:10:00,
2013-01-13 00:15:00,43.5,42.5,30.19,East,90,0.0,1.6,95,0.00,,,0.01,fowsr,2013-01-13 05:15:00,
2013-01-13 00:20:00,43.3,42.4,30.20,North,0,0.0,1.6,95,0.00,,,0.01,fowsr,2013-01-13 05:20:00,
2013-01-13 00:25:00,43.3,42.4,30.19,East,90,0.7,2.2,95,0.00,,,0.01,fowsr,2013-01-13 05:25:00,
2013-01-13 00:30:00,43.3,42.4,30.20,East,90,0.0,0.7,95,0.00,,,0.01,fowsr,2013-01-13 05:30:00,
2013-01-13 00:35:00,43.5,42.5,30.19,SE,135,0.0,0.7,95,0.00,,,0.01,fowsr,2013-01-13 05:35:00,
2013-01-13 00:40:00,43.5,42.5,30.19,SE,135,0.0,0.7,95,0.00,,,0.01,fowsr,2013-01-13 05:40:00,
2013-01-13 00:45:00,43.5,42.5,30.19,East,90,0.7,1.6,95,0.00,,,0.01,fowsr,2013-01-13 05:45:00,
2013-01-13 00:50:00,43.3,42.4,30.19,East,90,0.7,2.2,95,0.00,,,0.01,fowsr,2013-01-13 05:50:00,
2013-01-13 00:55:00,43.2,42.2,30.19,SE,135,0.0,0.7,95,0.00,,,0.01,fowsr,2013-01-13 05:55:00,
2013-01-13 01:00:00,43.0,42.0,30.19,East,90,0.7,0.7,95,0.00,,,0.01,fowsr,2013-01-13 06:00:00,
2013-01-13 01:05:00,43.0,42.0,30.19,East,90,0.7,2.2,95,0.00,,,0.01,fowsr,2013-01-13 06:05:00,
2013-01-13 01:15:00,42.8,41.8,30.19,East,90,0.7,2.2,95,0.00,,,0.01,fowsr,2013-01-13 06:15:00,
2013-01-13 01:20:00,42.8,41.8,30.19,East,90,0.7,2.2,95,0.00,,,0.01,fowsr,2013-01-13 06:20:00,
2013-01-13 01:25:00,43.0,42.0,30.19,East,90,0.0,0.7,95,0.00,,,0.01,fowsr,2013-01-13 06:25:00,
2013-01-13 01:30:00,43.0,42.0,30.20,East,90,0.7,1.6,95,0.00,,,0.01,fowsr,2013-01-13 06:30:00,
2013-01-13 01:35:00,43.0,42.0,30.19,East,90,0.7,1.6,95,0.00,,,0.01,fowsr,2013-01-13 06:35:00,
2013-01-13 01:40:00,42.8,41.8,30.19,East,90,0.0,0.7,95,0.00,,,0.01,fowsr,2013-01-13 06:40:00,
2013-01-13 01:45:00,42.8,41.8,30.20,East,90,0.0,0.7,95,0.00,,,0.01,fowsr,2013-01-13 06:45:00,
2013-01-13 01:50:00,42.8,41.8,30.19,SE,135,0.7,1.6,95,0.00,,,0.01,fowsr,2013-01-13 06:50:00,
2013-01-13 01:55:00,42.8,41.8,30.19,East,90,0.7,3.8,95,0.00,,,0.01,fowsr,2013-01-13 06:55:00,
2013-01-13 02:00:00,42.8,41.8,30.19,SE,135,2.2,3.8,95,0.00,,,0.01,fowsr,2013-01-13 07:00:00,
2013-01-13 02:05:00,42.8,41.8,30.19,East,90,0.7,2.2,95,0.00,,,0.01,fowsr,2013-01-13 07:05:00,
2013-01-13 02:10:00,42.8,41.8,30.19,East,90,0.7,1.6,95,0.00,,,0.01,fowsr,2013-01-13 07:10:00,
2013-01-13 02:15:00,42.8,41.8,30.19,SW,225,0.7,2.2,95,0.00,,,0.01,fowsr,2013-01-13 07:15:00,
2013-01-13 02:20:00,42.8,41.8,30.19,NE,45,1.6,2.2,95,0.00,,,0.01,fowsr,2013-01-13 07:20:00,
2013-01-13 02:25:00,42.8,41.8,30.20,NE,45,2.2,3.8,95,0.00,,,0.01,fowsr,2013-01-13 07:25:00,
2013-01-13 02:30:00,42.8,41.8,30.20,East,90,0.7,1.6,95,0.00,,,0.01,fowsr,2013-01-13 07:30:00,
2013-01-13 02:35:00,42.8,41.8,30.20,East,90,1.6,3.1,95,0.00,,,0.01,fowsr,2013-01-13 07:35:00,
2013-01-13 02:40:00,42.6,41.8,30.20,East,90,1.6,3.1,96,0.00,,,0.01,fowsr,2013-01-13 07:40:00,
2013-01-13 02:45:00,42.8,41.8,30.20,East,90,0.7,1.6,95,0.00,,,0.01,fowsr,2013-01-13 07:45:00,
2013-01-13 02:50:00,42.8,41.8,30.20,East,90,0.7,1.6,95,0.00,,,0.01,fowsr,2013-01-13 07:50:00,
2013-01-13 02:55:00,42.8,41.8,30.20,SE,135,0.0,0.7,95,0.00,,,0.01,fowsr,2013-01-13 07:55:00,
2013-01-13 03:00:00,42.8,41.8,30.20,SE,135,0.0,0.0,95,0.00,,,0.01,fowsr,2013-01-13 08:00:00,
2013-01-13 03:05:00,42.8,41.8,30.20,SE,135,0.0,0.0,95,0.00,,,0.01,fowsr,2013-01-13 08:05:00,
2013-01-13 03:10:00,42.6,41.8,30.20,East,90,0.0,0.7,96,0.00,,,0.01,fowsr,2013-01-13 08:10:00,
2013-01-13 03:15:00,42.4,41.7,30.20,East,90,0.0,0.0,96,0.00,,,0.01,fowsr,2013-01-13 08:15:00,
2013-01-13 03:20:00,42.4,41.7,30.19,SE,135,0.0,0.0,96,0.00,,,0.01,fowsr,2013-01-13 08:20:00,
2013-01-13 03:25:00,42.4,41.7,30.20,SE,135,0.0,0.0,96,0.00,,,0.01,fowsr,2013-01-13 08:25:00,
2013-01-13 03:30:00,42.4,41.7,30.19,SE,135,0.0,0.0,96,0.00,,,0.01,fowsr,2013-01-13 08:30:00,
2013-01-13 03:35:00,42.6,41.8,30.20,SE,135,0.0,0.0,96,0.00,,,0.01,fowsr,2013-01-13 08:35:00,
2013-01-13 03:40:00,42.6,41.8,30.20,SE,135,0.0,0.7,96,0.00,,,0.01,fowsr,2013-01-13 08:40:00,
2013-01-13 03:50:00,42.6,41.8,30.20,East,90,0.0,0.7,96,0.00,,,0.01,fowsr,2013-01-13 08:50:00,
2013-01-13 04:00:00,42.4,41.7,30.19,SE,135,0.0,1.6,96,0.00,,,0.01,fowsr,2013-01-13 09:00:00,
2013-01-13 04:05:00,42.4,41.7,30.19,SE,135,0.0,0.7,96,0.00,,,0.01,fowsr,2013-01-13 09:05:00,
2013-01-13 04:10:00,42.4,41.7,30.19,East,90,0.0,0.7,96,0.00,,,0.01,fowsr,2013-01-13 09:10:00,
2013-01-13 04:15:00,42.4,41.7,30.19,East,90,0.0,1.6,96,0.00,,,0.01,fowsr,2013-01-13 09:15:00,
2013-01-13 04:20:00,42.4,41.7,30.18,East,90,0.7,2.2,96,0.00,,,0.01,fowsr,2013-01-13 09:20:00,
2013-01-13 04:25:00,42.4,41.7,30.18,East,90,0.7,1.6,96,0.00,,,0.01,fowsr,2013-01-13 09:25:00,
2013-01-13 04:30:00,42.3,41.5,30.17,East,90,1.6,3.1,96,0.00,,,0.01,fowsr,2013-01-13 09:30:00,
2013-01-13 04:35:00,42.3,41.5,30.18,East,90,0.0,1.6,96,0.00,,,0.01,fowsr,2013-01-13 09:35:00,
2013-01-13 04:40:00,42.3,41.5,30.18,SE,135,0.0,0.7,96,0.00,,,0.01,fowsr,2013-01-13 09:40:00,
2013-01-13 04:45:00,42.3,41.5,30.17,SE,135,0.0,1.6,96,0.00,,,0.01,fowsr,2013-01-13 09:45:00,
2013-01-13 04:50:00,42.3,41.5,30.17,NE,45,0.0,0.7,96,0.00,,,0.01,fowsr,2013-01-13 09:50:00,
2013-01-13 04:55:00,42.3,41.5,30.17,NE,45,0.7,1.6,96,0.00,,,0.01,fowsr,2013-01-13 09:55:00,
2013-01-13 05:00:00,42.3,41.5,30.18,East,90,0.0,0.7,96,0.00,,,0.01,fowsr,2013-01-13 10:00:00,
2013-01-13 05:05:00,42.3,41.5,30.17,SE,135,0.7,2.2,96,0.00,,,0.01,fowsr,2013-01-13 10:05:00,
2013-01-13 05:10:00,42.4,41.7,30.17,East,90,0.7,1.6,96,0.00,,,0.01,fowsr,2013-01-13 10:10:00,
2013-01-13 05:15:00,42.3,41.5,30.17,SE,135,0.7,2.2,96,0.00,,,0.01,fowsr,2013-01-13 10:15:00,
2013-01-13 05:20:00,42.3,41.5,30.17,East,90,1.6,3.1,96,0.00,,,0.01,fowsr,2013-01-13 10:20:00,
2013-01-13 05:25:00,42.3,41.5,30.17,East,90,1.6,2.2,96,0.00,,,0.01,fowsr,2013-01-13 10:25:00,
2013-01-13 05:30:00,42.3,41.5,30.17,East,90,0.7,1.6,96,0.00,,,0.01,fowsr,2013-01-13 10:30:00,
2013-01-13 05:35:00,42.4,41.7,30.17,East,90,0.7,1.6,96,0.00,,,0.01,fowsr,2013-01-13 10:35:00,
2013-01-13 05:40:00,42.4,41.7,30.17,East,90,1.6,2.2,96,0.00,,,0.01,fowsr,2013-01-13 10:40:00,
2013-01-13 05:45:00,42.3,41.5,30.16,East,90,2.2,3.8,96,0.00,,,0.01,fowsr,2013-01-13 10:45:00,
2013-01-13 05:50:00,42.3,41.5,30.16,SE,135,0.0,0.7,96,0.00,,,0.01,fowsr,2013-01-13 10:50:00,
2013-01-13 05:55:00,42.3,41.5,30.17,NE,45,0.0,1.6,96,0.00,,,0.01,fowsr,2013-01-13 10:55:00,
2013-01-13 06:00:00,42.3,41.5,30.17,SE,135,0.7,2.2,96,0.00,,,0.01,fowsr,2013-01-13 11:00:00,
2013-01-13 06:05:00,42.3,41.5,30.17,East,90,2.2,4.5,96,0.00,,,0.01,fowsr,2013-01-13 11:05:00,
2013-01-13 06:10:00,42.3,41.5,30.17,North,0,0.7,2.2,96,0.00,,,0.01,fowsr,2013-01-13 11:10:00,
2013-01-13 06:15:00,42.3,41.5,30.17,East,90,0.0,1.6,96,0.00,,,0.01,fowsr,2013-01-13 11:15:00,
2013-01-13 06:20:00,42.1,41.3,30.17,East,90,0.7,2.2,96,0.00,,,0.01,fowsr,2013-01-13 11:20:00,
2013-01-13 06:25:00,42.1,41.3,30.17,East,90,0.7,1.6,96,0.00,,,0.01,fowsr,2013-01-13 11:25:00,
2013-01-13 06:30:00,42.1,41.3,30.17,East,90,0.7,1.6,96,0.00,,,0.01,fowsr,2013-01-13 11:30:00,
2013-01-13 06:40:00,42.1,41.3,30.17,East,90,0.0,1.6,96,0.00,,,0.01,fowsr,2013-01-13 11:40:00,
2013-01-13 06:45:00,42.1,41.3,30.17,SE,135,1.6,2.2,96,0.00,,,0.01,fowsr,2013-01-13 11:45:00,
2013-01-13 06:50:00,42.3,41.5,30.17,East,90,0.7,2.2,96,0.00,,,0.01,fowsr,2013-01-13 11:50:00,
2013-01-13 07:00:00,42.3,41.5,30.19,East,90,0.7,1.6,96,0.00,,,0.01,fowsr,2013-01-13 12:00:00,
2013-01-13 07:05:00,42.4,41.7,30.19,NE,45,0.7,2.2,96,0.00,,,0.01,fowsr,2013-01-13 12:05:00,
2013-01-13 07:10:00,42.4,41.7,30.18,East,90,0.7,1.6,96,0.00,,,0.01,fowsr,2013-01-13 12:10:00,
2013-01-13 07:15:00,42.4,41.7,30.18,SE,135,1.6,3.1,96,0.00,,,0.01,fowsr,2013-01-13 12:15:00,
2013-01-13 07:20:00,42.4,41.7,30.18,East,90,0.7,1.6,96,0.00,,,0.01,fowsr,2013-01-13 12:20:00,
2013-01-13 07:25:00,42.4,41.7,30.18,South,180,0.7,2.2,96,0.00,,,0.01,fowsr,2013-01-13 12:25:00,
2013-01-13 07:30:00,42.4,41.7,30.18,East,90,0.7,2.2,96,0.00,,,0.01,fowsr,2013-01-13 12:30:00,
2013-01-13 07:35:00,42.4,41.7,30.18,East,90,0.7,2.2,96,0.00,,,0.01,fowsr,2013-01-13 12:35:00,
2013-01-13 07:40:00,42.6,41.8,30.18,North,0,1.6,3.8,96,0.00,,,0.01,fowsr,2013-01-13 12:40:00,
2013-01-13 07:45:00,42.6,41.8,30.18,SE,135,1.6,2.2,96,0.00,,,0.01,fowsr,2013-01-13 12:45:00,
2013-01-13 07:50:00,42.8,41.8,30.18,SE,135,1.6,2.2,95,0.00,,,0.01,fowsr,2013-01-13 12:50:00,
2013-01-13 07:55:00,42.8,41.8,30.18,SE,135,2.2,3.8,95,0.00,,,0.01,fowsr,2013-01-13 12:55:00,
2013-01-13 08:00:00,42.8,41.8,30.18,SE,135,2.2,4.5,95,0.00,,,0.01,fowsr,2013-01-13 13:00:00,
2013-01-13 08:05:00,42.8,41.8,30.19,SE,135,1.6,2.2,95,0.00,,,0.01,fowsr,2013-01-13 13:05:00,
2013-01-13 08:10:00,42.8,41.8,30.19,East,90,1.6,3.1,95,0.00,,,0.01,fowsr,2013-01-13 13:10:00,
2013-01-13 08:20:00,43.2,42.2,30.19,SE,135,1.6,2.2,95,0.00,,,0.01,fowsr,2013-01-13 13:20:00,
2013-01-13 08:25:00,43.2,42.2,30.19,East,90,1.6,2.2,95,0.00,,,0.01,fowsr,2013-01-13 13:25:00,
2013-01-13 08:30:00,43.3,42.6,30.19,SE,135,0.7,1.6,96,0.00,,,0.01,fowsr,2013-01-13 13:30:00,
2013-01-13 08:35:00,43.3,42.6,30.19,East,90,1.6,2.2,96,0.00,,,0.01,fowsr,2013-01-13 13:35:00,
2013-01-13 08:40:00,43.5,42.7,30.19,East,90,1.6,3.1,96,0.00,,,0.01,fowsr,2013-01-13 13:40:00,
2013-01-13 08:45:00,43.7,42.9,30.19,East,90,0.7,1.6,96,0.00,,,0.01,fowsr,2013-01-13 13:45:00,
2013-01-13 08:50:00,43.9,43.1,30.19,SE,135,1.6,2.2,96,0.00,,,0.01,fowsr,2013-01-13 13:50:00,
2013-01-13 08:55:00,43.9,43.1,30.19,SE,135,1.6,2.2,96,0.00,,,0.01,fowsr,2013-01-13 13:55:00,
2013-01-13 09:00:00,44.1,43.3,30.19,NE,45,3.1,4.5,96,0.00,,,0.01,fowsr,2013-01-13 14:00:00,
2013-01-13 09:05:00,44.1,43.3,30.19,East,90,1.6,2.2,96,0.00,,,0.01,fowsr,2013-01-13 14:05:00,
2013-01-13 09:10:00,44.2,43.5,30.19,SE,135,1.6,3.1,96,0.00,,,0.01,fowsr,2013-01-13 14:10:00,
2013-01-13 09:15:00,44.4,43.6,30.19,SE,135,0.7,1.6,96,0.00,,,0.01,fowsr,2013-01-13 14:15:00,
2013-01-13 09:25:00,44.6,43.6,30.20,East,90,2.2,3.1,95,0.00,,,0.01,fowsr,2013-01-13 14:25:00,
2013-01-13 09:30:00,44.6,43.6,30.19,East,90,0.7,1.6,95,0.00,,,0.01,fowsr,2013-01-13 14:30:00,
2013-01-13 09:35:00,44.8,43.8,30.20,East,90,0.7,1.6,95,0.00,,,0.01,fowsr,2013-01-13 14:35:00,
2013-01-13 09:40:00,44.6,43.6,30.19,East,90,1.6,3.1,95,0.00,,,0.01,fowsr,2013-01-13 14:40:00,
2013-01-13 09:45:00,44.8,43.8,30.20,East,90,0.7,2.2,95,0.00,,,0.01,fowsr,2013-01-13 14:45:00,
2013-01-13 09:50:00,44.6,43.6,30.19,SE,135,1.6,3.1,95,0.00,,,0.01,fowsr,2013-01-13 14:50:00,
2013-01-13 09:55:00,44.8,43.8,30.20,East,90,1.6,2.2,95,0.00,,,0.01,fowsr,2013-01-13 14:55:00,
2013-01-13 10:00:00,44.8,43.8,30.20,SE,135,0.7,1.6,95,0.00,,,0.01,fowsr,2013-01-13 15:00:00,
2013-01-13 10:05:00,45.0,44.0,30.20,East,90,3.1,4.5,95,0.00,,,0.01,fowsr,2013-01-13 15:05:00,
2013-01-13 10:15:00,45.0,44.0,30.21,East,90,0.7,1.6,95,0.00,,,0.01,fowsr,2013-01-13 15:15:00,
2013-01-13 10:20:00,45.3,44.5,30.21,East,90,1.6,3.1,96,0.00,,,0.01,fowsr,2013-01-13 15:20:00,
2013-01-13 10:25:00,45.5,44.7,30.21,East,90,2.2,3.8,96,0.00,,,0.01,fowsr,2013-01-13 15:25:00,
2013-01-13 10:30:00,45.9,45.1,30.21,East,90,2.2,4.5,96,0.00,,,0.01,fowsr,2013-01-13 15:30:00,
2013-01-13 10:35:00,46.2,45.4,30.21,East,90,2.2,3.8,96,0.00,,,0.01,fowsr,2013-01-13 15:35:00,
2013-01-13 10:40:00,46.0,45.2,30.20,SE,135,1.6,3.1,96,0.00,,,0.01,fowsr,2013-01-13 15:40:00,
2013-01-13 10:45:00,46.0,45.2,30.19,SE,135,3.1,4.5,96,0.00,,,0.01,fowsr,2013-01-13 15:45:00,
2013-01-13 10:50:00,46.4,45.6,30.19,SE,135,3.1,3.8,96,0.00,,,0.01,fowsr,2013-01-13 15:50:00,
2013-01-13 10:55:00,46.6,45.8,30.19,SE,135,1.6,3.1,96,0.00,,,0.01,fowsr,2013-01-13 15:55:00,
2013-01-13 11:00:00,47.1,46.3,30.19,East,90,2.2,3.8,96,0.00,,,0.01,fowsr,2013-01-13 16:00:00,
2013-01-13 11:05:00,47.1,46.3,30.19,ESE,112,2.2,3.8,96,0.00,,,0.01,fowsr,2013-01-13 16:05:00,
2013-01-13 11:10:00,47.3,46.5,30.19,East,90,1.6,3.8,96,0.00,,,0.01,fowsr,2013-01-13 16:10:00,
2013-01-13 11:15:00,47.5,46.7,30.18,SE,135,1.6,2.2,96,0.00,,,0.01,fowsr,2013-01-13 16:15:00,
2013-01-13 11:20:00,47.7,46.9,30.18,SE,135,1.6,3.1,96,0.00,,,0.01,fowsr,2013-01-13 16:20:00,
2013-01-13 11:25:00,47.8,47.0,30.17,East,90,3.1,4.5,96,0.00,,,0.01,fowsr,2013-01-13 16:25:00,
2013-01-13 11:30:00,47.8,47.0,30.17,South,180,3.1,5.4,96,0.00,,,0.01,fowsr,2013-01-13 16:30:00,
2013-01-13 11:35:00,47.8,47.0,30.17,SE,135,2.2,3.8,96,0.00,,,0.01,fowsr,2013-01-13 16:35:00,
2013-01-13 11:40:00,47.7,46.9,30.17,SE,135,2.2,3.8,96,0.00,,,0.01,fowsr,2013-01-13 16:40:00,
2013-01-13 11:45:00,47.5,46.7,30.17,SE,135,2.2,3.8,96,0.00,,,0.01,fowsr,2013-01-13 16:45:00,
2013-01-13 11:50:00,47.7,46.9,30.17,South,180,3.8,5.4,96,0.00,,,0.01,fowsr,2013-01-13 16:50:00,
2013-01-13 11:55:00,47.8,47.0,30.17,SE,135,2.2,4.5,96,0.00,,,0.01,fowsr,2013-01-13 16:55:00,
2013-01-13 12:00:00,47.8,47.0,30.17,East,90,2.2,3.8,96,0.00,,,0.01,fowsr,2013-01-13 17:00:00,
2013-01-13 12:05:00,47.7,46.9,30.17,SE,135,1.6,2.2,96,0.00,,,0.01,fowsr,2013-01-13 17:05:00,
2013-01-13 12:10:00,47.8,47.0,30.16,SE,135,1.6,2.2,96,0.00,,,0.01,fowsr,2013-01-13 17:10:00,
2013-01-13 12:20:00,48.2,47.2,30.17,SE,135,1.6,2.2,95,0.00,,,0.01,fowsr,2013-01-13 17:20:00,
2013-01-13 12:25:00,48.2,47.2,30.16,SE,135,3.1,4.5,95,0.00,,,0.01,fowsr,2013-01-13 17:25:00,
2013-01-13 12:30:00,48.2,47.2,30.16,SE,135,2.2,3.8,95,0.00,,,0.01,fowsr,2013-01-13 17:30:00,
2013-01-13 12:35:00,48.4,47.4,30.16,SE,135,2.2,3.8,95,0.00,,,0.01,fowsr,2013-01-13 17:35:00,
2013-01-13 12:45:00,48.7,47.7,30.15,ESE,112,1.6,3.1,95,0.00,,,0.01,fowsr,2013-01-13 17:45:00,
2013-01-13 12:50:00,49.1,48.3,30.15,SE,135,1.6,3.1,96,0.00,,,0.01,fowsr,2013-01-13 17:50:00,
2013-01-13 12:55:00,49.1,48.1,30.15,SE,135,2.2,4.5,95,0.00,,,0.01,fowsr,2013-01-13 17:55:00,
2013-01-13 13:00:00,49.1,48.1,30.15,East,90,1.6,3.1,95,0.00,,,0.01,fowsr,2013-01-13 18:00:00,
2013-01-13 13:05:00,49.1,48.1,30.15,SE,135,0.7,1.6,95,0.00,,,0.01,fowsr,2013-01-13 18:05:00,
2013-01-13 13:10:00,49.3,48.3,30.15,East,90,2.2,3.1,95,0.00,,,0.01,fowsr,2013-01-13 18:10:00,
2013-01-13 13:15:00,49.1,48.1,30.15,East,90,0.7,3.1,95,0.00,,,0.01,fowsr,2013-01-13 18:15:00,
2013-01-13 13:20:00,49.3,48.3,30.15,South,180,0.7,2.2,95,0.00,,,0.01,fowsr,2013-01-13 18:20:00,
2013-01-13 13:25:00,48.9,47.9,30.15,SE,135,0.7,2.2,95,0.00,,,0.01,fowsr,2013-01-13 18:25:00,
2013-01-13 13:30:00,48.9,47.9,30.14,East,90,1.6,3.1,95,0.00,,,0.01,fowsr,2013-01-13 18:30:00,
2013-01-13 13:35:00,49.1,48.1,30.14,East,90,1.6,2.2,95,0.00,,,0.01,fowsr,2013-01-13 18:35:00,
2013-01-13 13:40:00,49.3,48.3,30.14,SE,135,2.2,3.8,95,0.00,,,0.01,fowsr,2013-01-13 18:40:00,
2013-01-13 13:45:00,49.5,48.4,30.13,East,90,2.2,3.1,95,0.00,,,0.01,fowsr,2013-01-13 18:45:00,
2013-01-13 13:50:00,49.6,48.6,30.13,ESE,112,0.7,1.6,95,0.00,,,0.01,fowsr,2013-01-13 18:50:00,
2013-01-13 13:55:00,50.2,48.9,30.12,SE,135,2.2,3.1,94,0.00,,,0.01,fowsr,2013-01-13 18:55:00,
2013-01-13 14:00:00,50.7,49.3,30.12,SE,135,2.2,3.8,93,0.00,,,0.01,fowsr,2013-01-13 19:00:00,
2013-01-13 14:05:00,50.5,48.9,30.13,SE,135,2.2,3.1,92,0.00,,,0.01,fowsr,2013-01-13 19:05:00,
2013-01-13 14:10:00,50.4,48.7,30.12,SE,135,1.6,2.2,92,0.00,,,0.01,fowsr,2013-01-13 19:10:00,
2013-01-13 14:15:00,50.2,48.3,30.12,East,90,1.6,2.2,91,0.00,,,0.01,fowsr,2013-01-13 19:15:00,
2013-01-13 14:20:00,50.2,48.3,30.12,East,90,2.2,3.8,91,0.00,,,0.01,fowsr,2013-01-13 19:20:00,
2013-01-13 14:25:00,50.2,48.3,30.12,SE,135,1.6,3.1,91,0.00,,,0.01,fowsr,2013-01-13 19:25:00,
2013-01-13 14:30:00,50.0,47.9,30.12,SE,135,1.6,3.1,90,0.00,,,0.01,fowsr,2013-01-13 19:30:00,
2013-01-13 14:35:00,50.0,47.9,30.12,SE,135,2.2,3.8,90,0.00,,,0.01,fowsr,2013-01-13 19:35:00,
2013-01-13 14:40:00,50.0,47.9,30.12,East,90,2.2,3.1,90,0.00,,,0.00,fowsr,2013-01-13 19:40:00,
2013-01-13 14:45:00,50.2,48.3,30.12,East,90,0.7,1.6,91,0.00,,,0.00,fowsr,2013-01-13 19:45:00,
2013-01-13 14:50:00,50.2,48.3,30.12,East,90,2.2,3.8,91,0.00,,,0.00,fowsr,2013-01-13 19:50:00,
2013-01-13 14:55:00,50.0,47.9,30.11,SE,135,3.1,4.5,90,0.00,,,0.00,fowsr,2013-01-13 19:55:00,
2013-01-13 15:00:00,50.2,48.1,30.11,East,90,3.1,4.5,90,0.00,,,0.00,fowsr,2013-01-13 20:00:00,
2013-01-13 15:05:00,50.2,48.3,30.11,East,90,3.1,4.5,91,0.00,,,0.00,fowsr,2013-01-13 20:05:00,
2013-01-13 15:10:00,50.2,48.3,30.12,SE,135,3.1,4.5,91,0.00,,,0.00,fowsr,2013-01-13 20:10:00,
2013-01-13 15:15:00,50.2,48.3,30.12,ESE,112,2.2,4.5,91,0.00,,,0.00,fowsr,2013-01-13 20:15:00,
2013-01-13 15:20:00,50.0,48.1,30.12,East,90,3.1,4.5,91,0.00,,,0.00,fowsr,2013-01-13 20:20:00,
2013-01-13 15:25:00,49.6,48.0,30.12,ESE,112,2.2,3.1,92,0.00,,,0.00,fowsr,2013-01-13 20:25:00,
2013-01-13 15:30:00,49.5,47.8,30.12,East,90,2.2,3.8,92,0.00,,,0.00,fowsr,2013-01-13 20:30:00,
2013-01-13 15:35:00,49.1,47.4,30.12,SE,135,2.2,3.8,92,0.00,,,0.00,fowsr,2013-01-13 20:35:00,
2013-01-13 15:40:00,49.1,47.4,30.12,East,90,2.2,3.8,92,0.00,,,0.00,fowsr,2013-01-13 20:40:00,
2013-01-13 15:45:00,48.9,47.3,30.12,SE,135,1.6,3.1,92,0.00,,,0.00,fowsr,2013-01-13 20:45:00,
2013-01-13 15:50:00,48.7,47.3,30.12,SE,135,1.6,3.1,93,0.00,,,0.00,fowsr,2013-01-13 20:50:00,
2013-01-13 15:55:00,48.7,47.3,30.12,South,180,2.2,4.5,93,0.00,,,0.00,fowsr,2013-01-13 20:55:00,
2013-01-13 16:00:00,48.7,47.3,30.12,SE,135,1.6,3.1,93,0.00,,,0.00,fowsr,2013-01-13 21:00:00,
2013-01-13 16:05:00,48.6,47.1,30.11,SE,135,1.6,2.2,93,0.00,,,0.00,fowsr,2013-01-13 21:05:00,
2013-01-13 16:10:00,48.7,47.3,30.11,South,180,3.1,6.9,93,0.00,,,0.00,fowsr,2013-01-13 21:10:00,
2013-01-13 16:15:00,48.7,47.5,30.11,ESE,112,1.6,3.1,94,0.00,,,0.00,fowsr,2013-01-13 21:15:00,
2013-01-13 16:20:00,48.9,47.7,30.11,SE,135,2.2,3.8,94,0.00,,,0.00,fowsr,2013-01-13 21:20:00,
2013-01-13 16:25:00,49.1,47.9,30.12,SE,135,2.2,3.8,94,0.00,,,0.00,fowsr,2013-01-13 21:25:00,
2013-01-13 16:30:00,49.1,47.9,30.11,SE,135,1.6,3.1,94,0.00,,,0.00,fowsr,2013-01-13 21:30:00,
2013-01-13 16:35:00,49.1,47.9,30.11,East,90,2.2,3.1,94,0.00,,,0.00,fowsr,2013-01-13 21:35:00,
2013-01-13 16:40:00,48.9,47.7,30.11,SE,135,3.1,4.5,94,0.00,,,0.00,fowsr,2013-01-13 21:40:00,
2013-01-13 16:45:00,48.9,47.7,30.11,East,90,3.1,4.5,94,0.00,,,0.00,fowsr,2013-01-13 21:45:00,
2013-01-13 16:50:00,48.9,47.7,30.12,East,90,2.2,4.5,94,0.00,,,0.00,fowsr,2013-01-13 21:50:00,
2013-01-13 16:55:00,48.9,47.7,30.11,SE,135,2.2,5.4,94,0.00,,,0.00,fowsr,2013-01-13 21:55:00,
2013-01-13 17:00:00,48.9,47.7,30.12,East,90,3.1,5.4,94,0.00,,,0.00,fowsr,2013-01-13 22:00:00,
2013-01-13 17:05:00,49.1,47.9,30.11,East,90,1.6,2.2,94,0.00,,,0.00,fowsr,2013-01-13 22:05:00,
2013-01-13 17:10:00,49.1,48.1,30.12,East,90,2.2,3.1,95,0.00,,,0.00,fowsr,2013-01-13 22:10:00,
2013-01-13 17:15:00,49.3,48.3,30.12,SE,135,1.6,2.2,95,0.00,,,0.00,fowsr,2013-01-13 22:15:00,
2013-01-13 17:20:00,49.3,48.3,30.12,SE,135,1.6,2.2,95,0.00,,,0.00,fowsr,2013-01-13 22:20:00,
2013-01-13 17:25:00,49.3,48.3,30.11,ESE,112,3.1,4.5,95,0.00,,,0.00,fowsr,2013-01-13 22:25:00,
2013-01-13 17:30:00,49.3,48.3,30.11,SE,135,2.2,3.1,95,0.00,,,0.00,fowsr,2013-01-13 22:30:00,
2013-01-13 17:35:00,49.3,48.3,30.11,NE,45,0.7,2.2,95,0.00,,,0.00,fowsr,2013-01-13 22:35:00,
2013-01-13 17:40:00,49.3,48.3,30.11,East,90,3.1,5.4,95,0.00,,,0.00,fowsr,2013-01-13 22:40:00,
2013-01-13 17:45:00,49.5,48.4,30.10,South,180,2.2,3.1,95,0.00,,,0.00,fowsr,2013-01-13 22:45:00,
2013-01-13 17:50:00,49.6,48.6,30.10,SE,135,0.7,2.2,95,0.00,,,0.00,fowsr,2013-01-13 22:50:00,
2013-01-13 17:55:00,49.8,48.8,30.10,SE,135,2.2,4.5,95,0.00,,,0.00,fowsr,2013-01-13 22:55:00,
2013-01-13 18:00:00,50.0,48.8,30.10,SE,135,2.2,3.8,94,0.00,,,0.00,fowsr,2013-01-13 23:00:00,
2013-01-13 18:05:00,50.0,48.8,30.10,East,90,2.2,3.8,94,0.00,,,0.00,fowsr,2013-01-13 23:05:00,
2013-01-13 18:10:00,50.2,48.9,30.10,East,90,2.2,3.8,94,0.00,,,0.00,fowsr,2013-01-13 23:10:00,
2013-01-13 18:15:00,50.2,48.9,30.09,SE,135,1.6,3.1,94,0.00,,,0.00,fowsr,2013-01-13 23:15:00,
2013-01-13 18:25:00,50.2,48.9,30.08,SE,135,2.2,6.0,94,0.00,,,0.00,fowsr,2013-01-13 23:25:00,
2013-01-13 18:30:00,50.4,49.3,30.08,SE,135,2.2,3.1,95,0.00,,,0.00,fowsr,2013-01-13 23:30:00,
2013-01-13 18:35:00,50.5,49.5,30.08,SE,135,3.1,5.4,95,0.00,,,0.00,fowsr,2013-01-13 23:35:00,
2013-01-13 18:40:00,50.5,49.5,30.08,SE,135,3.1,4.5,95,0.00,,,0.00,fowsr,2013-01-13 23:40:00,
2013-01-13 18:45:00,50.5,49.5,30.08,SE,135,2.2,3.8,95,0.00,,,0.00,fowsr,2013-01-13 23:45:00,
2013-01-13 18:50:00,50.4,49.3,30.09,SE,135,2.2,3.8,95,0.00,,,0.00,fowsr,2013-01-13 23:50:00,
2013-01-13 18:55:00,50.4,49.3,30.09,SE,135,0.7,2.2,95,0.00,,,0.00,fowsr,2013-01-13 23:55:00,
2013-01-13 19:00:00,50.5,49.5,30.10,SE,135,1.6,4.5,95,0.00,,,0.00,fowsr,2013-01-14 00:00:00,
2013-01-13 19:05:00,50.7,49.7,30.10,SE,135,2.2,3.8,95,0.00,,,0.00,fowsr,2013-01-14 00:05:00,
2013-01-13 19:10:00,50.7,49.7,30.10,SE,135,3.8,4.5,95,0.00,,,0.00,fowsr,2013-01-14 00:10:00,
2013-01-13 19:15:00,50.7,49.7,30.10,SE,135,2.2,5.4,95,0.00,,,0.00,fowsr,2013-01-14 00:15:00,
2013-01-13 19:20:00,50.7,49.7,30.10,East,90,1.6,3.8,95,0.00,,,0.00,fowsr,2013-01-14 00:20:00,
2013-01-13 19:25:00,50.2,49.1,30.10,SE,135,1.6,3.8,95,0.00,,,0.00,fowsr,2013-01-14 00:25:00,
2013-01-13 19:30:00,50.0,49.0,30.10,SE,135,2.2,4.5,95,0.00,,,0.00,fowsr,2013-01-14 00:30:00,
2013-01-13 19:35:00,49.8,49.0,30.10,SE,135,2.2,5.4,96,0.00,,,0.00,fowsr,2013-01-14 00:35:00,
2013-01-13 19:40:00,49.8,49.0,30.10,South,180,1.6,3.8,96,0.00,,,0.00,fowsr,2013-01-14 00:40:00,
2013-01-13 19:45:00,49.6,48.8,30.10,South,180,2.2,3.8,96,0.00,,,0.00,fowsr,2013-01-14 00:45:00,
2013-01-13 19:50:00,49.5,48.4,30.10,South,180,0.7,1.6,95,0.00,,,0.00,fowsr,2013-01-14 00:50:00,
2013-01-13 19:55:00,49.1,48.1,30.10,SE,135,0.7,1.6,95,0.00,,,0.00,fowsr,2013-01-14 00:55:00,
2013-01-13 20:00:00,48.9,47.9,30.09,SE,135,0.0,1.6,95,0.00,,,0.00,fowsr,2013-01-14 01:00:00,
2013-01-13 20:05:00,49.1,48.1,30.09,SE,135,0.0,0.7,95,0.00,,,0.00,fowsr,2013-01-14 01:05:00,
2013-01-13 20:10:00,49.3,48.3,30.10,SE,135,0.0,0.7,95,0.00,,,0.00,fowsr,2013-01-14 01:10:00,
2013-01-13 20:15:00,49.5,48.6,30.09,SE,135,0.0,0.7,96,0.00,,,0.00,fowsr,2013-01-14 01:15:00,
2013-01-13 20:20:00,49.6,48.8,30.09,SE,135,0.0,0.0,96,0.00,,,0.00,fowsr,2013-01-14 01:20:00,
2013-01-13 20:25:00,50.0,49.0,30.09,SE,135,0.0,0.7,95,0.00,,,0.00,fowsr,2013-01-14 01:25:00,
2013-01-13 20:30:00,50.2,49.1,30.09,SE,135,0.0,0.0,95,0.00,,,0.00,fowsr,2013-01-14 01:30:00,
2013-01-13 20:35:00,50.2,49.1,30.09,SE,135,0.0,0.7,95,0.00,,,0.00,fowsr,2013-01-14 01:35:00,
2013-01-13 20:40:00,50.4,49.3,30.08,NE,45,0.0,0.7,95,0.00,,,0.00,fowsr,2013-01-14 01:40:00,
2013-01-13 20:45:00,50.5,49.5,30.09,NE,45,0.0,0.0,95,0.00,,,0.00,fowsr,2013-01-14 01:45:00,
2013-01-13 20:50:00,50.5,49.5,30.09,NE,45,0.0,0.0,95,0.00,,,0.00,fowsr,2013-01-14 01:50:00,
2013-01-13 20:55:00,50.5,49.5,30.08,SE,135,0.0,0.0,95,0.00,,,0.00,fowsr,2013-01-14 01:55:00,
2013-01-13 21:00:00,50.7,49.7,30.08,SE,135,0.0,0.0,95,0.00,,,0.00,fowsr,2013-01-14 02:00:00,
2013-01-13 21:05:00,50.7,49.7,30.08,SE,135,0.0,0.7,95,0.00,,,0.00,fowsr,2013-01-14 02:05:00,
2013-01-13 21:10:00,50.7,49.7,30.08,SE,135,0.0,0.7,95,0.00,,,0.00,fowsr,2013-01-14 02:10:00,
2013-01-13 21:15:00,50.7,49.7,30.08,SE,135,0.0,0.0,95,0.00,,,0.00,fowsr,2013-01-14 02:15:00,
2013-01-13 21:20:00,50.7,49.7,30.07,SE,135,0.0,0.0,95,0.00,,,0.00,fowsr,2013-01-14 02:20:00,
2013-01-13 21:25:00,50.7,49.7,30.07,SE,135,0.0,0.7,95,0.00,,,0.00,fowsr,2013-01-14 02:25:00,
2013-01-13 21:30:00,50.7,49.7,30.07,East,90,0.0,0.7,95,0.00,,,0.00,fowsr,2013-01-14 02:30:00,
2013-01-13 21:35:00,50.9,49.9,30.07,SE,135,0.0,0.7,95,0.00,,,0.00,fowsr,2013-01-14 02:35:00,
2013-01-13 21:40:00,50.9,49.9,30.08,SE,135,0.0,0.7,95,0.00,,,0.00,fowsr,2013-01-14 02:40:00,
2013-01-13 21:45:00,50.9,49.9,30.07,SE,135,0.0,0.7,95,0.00,,,0.00,fowsr,2013-01-14 02:45:00,
2013-01-13 21:50:00,50.7,49.7,30.07,East,90,0.7,2.2,95,0.00,,,0.00,fowsr,2013-01-14 02:50:00,
2013-01-13 21:55:00,50.7,49.7,30.08,East,90,0.0,0.0,95,0.00,,,0.00,fowsr,2013-01-14 02:55:00,
2013-01-13 22:00:00,50.7,49.7,30.08,East,90,0.0,0.0,95,0.00,,,0.00,fowsr,2013-01-14 03:00:00,
2013-01-13 22:05:00,50.7,49.7,30.08,SE,135,0.0,0.7,95,0.00,,,0.00,fowsr,2013-01-14 03:05:00,
2013-01-13 22:10:00,50.5,49.5,30.07,East,90,0.0,0.7,95,0.00,,,0.00,fowsr,2013-01-14 03:10:00,
2013-01-13 22:15:00,50.5,49.5,30.08,East,90,0.0,0.0,95,0.00,,,0.00,fowsr,2013-01-14 03:15:00,
2013-01-13 22:25:00,50.5,49.5,30.07,SE,135,0.0,0.7,95,0.00,,,0.00,fowsr,2013-01-14 03:25:00,
2013-01-13 22:35:00,50.4,49.3,30.07,NE,45,0.0,1.6,95,0.00,,,0.00,fowsr,2013-01-14 03:35:00,
2013-01-13 22:40:00,50.4,49.3,30.07,East,90,0.0,0.0,95,0.00,,,0.00,fowsr,2013-01-14 03:40:00,
2013-01-13 22:45:00,50.4,49.3,30.07,East,90,0.7,1.6,95,0.00,,,0.00,fowsr,2013-01-14 03:45:00,
2013-01-13 22:50:00,50.4,49.3,30.08,SE,135,0.0,0.7,95,0.00,,,0.00,fowsr,2013-01-14 03:50:00,
2013-01-13 22:55:00,50.7,49.7,30.07,East,90,0.7,1.6,95,0.00,,,0.00,fowsr,2013-01-14 03:55:00,
2013-01-13 23:00:00,51.1,50.0,30.07,East,90,0.7,1.6,95,0.00,,,0.00,fowsr,2013-01-14 04:00:00,
2013-01-13 23:05:00,51.1,50.0,30.07,SE,135,0.7,1.6,95,0.00,,,0.00,fowsr,2013-01-14 04:05:00,
2013-01-13 23:10:00,51.6,50.8,30.07,SE,135,0.7,1.6,96,0.00,,,0.00,fowsr,2013-01-14 04:10:00,
2013-01-13 23:15:00,51.8,50.8,30.07,East,90,0.7,1.6,95,0.00,,,0.00,fowsr,2013-01-14 04:15:00,
2013-01-13 23:20:00,51.8,50.8,30.07,SE,135,0.7,2.2,95,0.00,,,0.00,fowsr,2013-01-14 04:20:00,
2013-01-13 23:25:00,51.8,50.5,30.07,East,90,0.7,1.6,94,0.00,,,0.00,fowsr,2013-01-14 04:25:00,
2013-01-13 23:30:00,51.8,50.5,30.07,SE,135,0.7,1.6,94,0.00,,,0.00,fowsr,2013-01-14 04:30:00,
2013-01-13 23:35:00,51.6,50.6,30.07,SE,135,0.7,1.6,95,0.00,,,0.00,fowsr,2013-01-14 04:35:00,
2013-01-13 23:40:00,51.4,50.4,30.07,East,90,0.7,1.6,95,0.00,,,0.00,fowsr,2013-01-14 04:40:00,
2013-01-13 23:45:00,51.3,50.2,30.07,East,90,0.7,1.6,95,0.00,,,0.00,fowsr,2013-01-14 04:45:00,
2013-01-13 23:50:00,51.3,50.2,30.07,East,90,0.7,1.6,95,0.00,,,0.00,fowsr,2013-01-14 04:50:00,
2013-01-13 23:55:00,51.1,50.0,30.07,SE,135,0.7,1.6,95,0.00,,,0.00,fowsr,2013-01-14 04:55:00,